Location: Arboyeti
(42.1122°N, 44.6017°E)
Time: 05:50:24
(UTC+00:00)

ARIANE 5 R/B - Pass Details

Date: 19 April 2021
Orbit: 620 x 656 km, 98.1° (Epoch: 06 May)

Event Time Altitude Azimuth Distance (km) Brightness Sun altitude
Exits shadow 18:54:51 40° 286° (WNW) 947 3.7 -29.2°
Drops below altitude 10° 18:58:23 10° 333° (NNW) 2,023 6.1 -29.5°
Sets 19:00:40 0° 340° (NNW) 2,930 7.1 -29.8°
